Regional Weather Roundup
Issued by NWS

Home | Current Version | Previous Version | Text Only | Print | Product List | Glossary Off
Versions: 1 2 3 4 5 6 7 8 9 10 11 12 13 14 15 16 17 18 19 20 21 22 23 24 25 26 27 28 29 30 31 32 33 34 35 36 37 38 39 40 41 42 43 44 45 46 47 48 49 50

000
ASUS43 KIND 271709
RWRIN

WEATHER ROUNDUP FOR INDIANA
NATIONAL WEATHER SERVICE INDIANAPOLIS IN
1200 PM EST THU NOV 27 2014

NOTE: "FAIR" INDICATES FEW OR NO CLOUDS BELOW 12,000 FEET WITH NO
SIGNIFICANT WEATHER AND/OR OBSTRUCTIONS TO VISIBILITY.

* - STATION DOES NOT REPORT WEATHER SUCH AS PRECIPITATION OR FOG.

+ - STATION NOT QUALITY CONTROLLED BY THE NATIONAL WEATHER SERVICE.
    USE DATA WITH CAUTION...ESPECIALLY DEWPOINT AND RELATIVE
    HUMIDITY OBSERVATIONS.

INZ001>003-010>013-019-020-271800-
NORTHWEST INDIANA

CITY           SKY/WX    TMP DP  RH WIND       PRES   REMARKS
GARY /AIRPORT/ PTSUNNY   30  19  64 W12       30.34R WCI  21
KNOX *+        CLOUDY    28  22  79 W12       30.29R WCI  18
LA PORTE +     CLOUDY    31  26  81 W9        30.28S WCI  23
MICHIGAN CITY+ CLOUDY    30  21  69 NW12      30.29S WCI  21
MONTICELLO +   CLOUDY    28  22  81 W15       30.32R WCI  16
RENSSELAER +   CLOUDY    28  27  93 W13       30.33F WCI  18
VALPARAISO     CLOUDY    28  21  75 NW13      30.30S WCI  17

$$

LMZ046-743>745-271800-
SOUTHERN LAKE MICHIGAN

STATION/POSITION TIME  TEMP WIND        PRES
                       AIR  DIR/SP/G
                 (UTC) (F)  (DEG/KT/KT) (MB)
MICHIGAN CITY    1700   29  270/ 22/ 24   N/A

$$

INZ004-005-014>016-021>024-271800-
NORTH CENTRAL INDIANA

CITY           SKY/WX    TMP DP  RH WIND       PRES   REMARKS
GOSHEN         LGT SNOW  31  28  89 W14       30.23F FOG     WCI  21
LOGANSPORT +   PTSUNNY   30  23  74 W14       30.31S WCI  20
PERU/GRISSOM   CLOUDY    29  29  97 W14       30.28S WCI  19
ROCHESTER +    CLOUDY    32  28  86 W12       30.28S WCI  23
SOUTH BEND     LGT SNOW  30  28  92 W13       30.25F VSB 1   WCI  20
WARSAW +       FLURRIES  32  28  86 W13       30.24F WCI  22

$$

INZ006>009-017-018-025>027-271800-
NORTHEAST INDIANA

CITY           SKY/WX    TMP DP  RH WIND       PRES   REMARKS
ANGOLA *+      CLOUDY    30  18  59 W7        30.20F WCI  23
AUBURN +       CLOUDY    32  25  74 W8        30.23S WCI  25
FORT WAYNE     LGT SNOW  31  27  85 W14       30.24F FOG     WCI  21
HUNTINGTON +   LGT SNOW  29  28  92 W10       30.25F WCI  20

$$

INZ028-029-035-036-043>045-051>053-271800-
WEST CENTRAL INDIANA

CITY           SKY/WX    TMP DP  RH WIND       PRES   REMARKS
GREENCASTLE +  LGT SNOW  28  21  74 W8        30.35S WCI  20
LAFAYETTE      CLOUDY    27  21  78 W14       30.34S WCI  16
TERRE HAUTE    CLOUDY    28  21  75 W9G18     30.39S WCI  19

$$

INZ030>032-037>040-046>048-054>057-064-065-271800-
CENTRAL INDIANA

CITY           SKY/WX    TMP DP  RH WIND       PRES   REMARKS
CP ATTERBURY + LGT SNOW  30  25  80 W10G16    30.34F WCI  21
FRANKFORT +    MOSUNNY   30  25  83 W15       30.33S HAZE    WCI  19
INDIANAPOLIS   LGT SNOW  29  22  75 NW15      30.32S WCI  18
-EAGLE CREEK   LGT SNOW  29  24  82 NW12      30.32R WCI  19
KOKOMO *+      CLOUDY    28  25  86 W16       30.29S WCI  17
MARION +       LGT SNOW  29  26  88 W14       30.28S WCI  18
MT COMFORT *+  CLOUDY    30  23  74 NW10G17   30.30F WCI  21
SHELBYVILLE    LGT SNOW  31  25  78 W14       30.31S WCI  21
ZIONSVILLE +   LGT SNOW  29  23  78 NW12G17   30.31S WCI  19

$$

INZ033-034-041-042-049-050-058-059-271800-
EAST CENTRAL INDIANA

CITY           SKY/WX    TMP DP  RH WIND       PRES   REMARKS
MUNCIE         LGT SNOW  30  26  85 W13       30.27S FOG     WCI  20

$$

INZ060-061-067>069-081>083-085>088-271800-
SOUTHWEST INDIANA

CITY           SKY/WX    TMP DP  RH WIND       PRES   REMARKS
EVANSVILLE     PTSUNNY   30  23  75 W14       30.46R WCI  19
HUNTINGBURG *+ CLOUDY    30  25  80 NW12      30.43S WCI  21
WASHINGTON +   CLOUDY    30  26  84 W9        30.42R WCI  21

$$

INZ062-063-066-070>080-084-089>092-271800-
SOUTH CENTRAL AND SOUTHEAST INDIANA

CITY           SKY/WX    TMP DP  RH WIND       PRES   REMARKS
BLOOMINGTON    CLOUDY    30  22  72 W8        30.35F WCI  22

$$



USA.gov is the U.S. government's official web portal to all federal, state and local government web resources and services.